This is the latest recevied weather packets stored in our database for station/object I2HLY-3. If no packets are shown the sender has not sent any weather packets the latest 10 day(s).
| Time | Temp. | Humidity | Pressure | Rain* | Wind** | Luminosity | Snow |
|---|---|---|---|---|---|---|---|
| 1777554151 | 17.78° C | 45% | 1022.3 hPa | 0 mm | - | - | - |
| 1777553255 | 17.78° C | 45% | 1022.4 hPa | 0 mm | - | - | - |
| 1777552352 | 17.22° C | 45% | 1022.6 hPa | 0 mm | - | - | - |
| 1777551451 | 17.22° C | 43% | 1022.7 hPa | 0 mm | - | - | - |
| 1777550553 | 17.22° C | 43% | 1022.8 hPa | 0 mm | - | - | - |
| 1777549654 | 17.22° C | 43% | 1022.9 hPa | 0 mm | - | - | - |
| 1777548753 | 17.22° C | 43% | 1022.9 hPa | 0 mm | - | - | - |
| 1777547837 | 16.67° C | 43% | 1023.1 hPa | 0 mm | - | - | - |
| 1777546935 | 16.67° C | 46% | 1023.2 hPa | 0 mm | - | - | - |
| 1777546053 | 16.67° C | 46% | 1023.2 hPa | 0 mm | - | - | - |
| 1777545137 | 16.67° C | 44% | 1023.1 hPa | 0 mm | - | - | - |
| 1777544237 | 16.11° C | 48% | 1023.1 hPa | 0 mm | - | - | - |
| 1777543336 | 16.67° C | 49% | 1023.1 hPa | 0 mm | - | - | - |
| 1777542437 | 15.56° C | 53% | 1023.1 hPa | 0 mm | - | - | - |
| 1777541536 | 15.56° C | 51% | 1023.2 hPa | 0 mm | - | - | - |
| 1777540636 | 15.56° C | 50% | 1023.1 hPa | 0 mm | - | - | - |
| 1777539736 | 15° C | 52% | 1023.1 hPa | 0 mm | - | - | - |
| 1777538840 | 15° C | 53% | 1023 hPa | 0 mm | - | - | - |
| 1777537938 | 15° C | 53% | 1022.9 hPa | 0 mm | - | - | - |
| 1777537038 | 14.44° C | 55% | 1022.8 hPa | 1.02 mm | - | - | - |
| 1777536140 | 13.89° C | 59% | 1022.8 hPa | 1.02 mm | - | - | - |
| 1777535240 | 13.33° C | 59% | 1022.6 hPa | 1.02 mm | - | - | - |
| 1777534338 | 13.33° C | 64% | 1022.4 hPa | 1.02 mm | - | - | - |
| 1777533442 | 13.33° C | 67% | 1022.3 hPa | 0 mm | - | - | - |
| 1777532541 | 12.78° C | 68% | 1022.2 hPa | 0 mm | - | - | - |
* Rain latest hour (hover to see other rain measurements)
** Current wind speed in m/s (hover to see current wind gust speed)